Location: *
(45.9500°N, 9.0833°E)
Time: 05:33:40
(UTC+00:00)

Cosmos 2184 Rocket - Pass Details

Date: 03 March 2021
Orbit: 960 x 1001 km, 82.9° (Epoch: 18 April)

Event Time Altitude Azimuth Distance (km) Brightness Sun altitude
Rises 17:53:39 0° 186° (S) 3,628 7.1 -7.8°
Reaches altitude 10° 17:56:08 10° 186° (S) 2,688 6.4 -8.3°
Maximum altitude 18:02:17 90° 280° (W) 971 4.0 -9.3°
Drops below altitude 10° 18:08:32 10° 9° (N) 2,724 6.3 -10.4°
Sets 18:11:04 0° 9° (N) 3,681 6.9 -10.9°
